This demonstration page uses our WeatherBlox Daily Observations layout. Learn more.

Left ArrowRight Arrow

41.55636, -103.73856

Hourly Observations for June 27, 2022

Temp ( °F °C ) Dew Point ( °F °C ) Humidity (%) Winds ( mph kmh ) Pressure ( in mb ) Visibility ( mi km ) Precip ( " mm )
12:58 am 00:58 Clear 58 14.6 37 2.5 44 44 SSE 18 30 30.23 1024 10 16 0.00 0.00
1:58 am 01:58 Clear 57 13.8 36 2.4 46 46 S 20 31 30.21 1023 10 16 0.00 0.00
2:58 am 02:58 Clear 56 13.2 37 3 50 50 S 17 28 30.20 1023 10 16 0.00 0.00
3:58 am 03:58 Clear 55 12.6 39 3.8 55 55 S 15 24 30.19 1023 10 16 0.00 0.00
4:58 am 04:58 Clear 56 13.1 41 4.8 57 57 W 3 6 30.20 1023 10 16 0.00 0.00
5:58 am 05:58 Sunny 57 14 42 5.4 56 56 Calm 30.19 1023 10 16 0.00 0.00
6:58 am 06:58 Sunny 57 14 42 5.4 56 56 SSW 6 9 30.19 1023 10 16 0.00 0.00
7:58 am 07:58 Sunny 62 16.7 44 6.5 51 51 SW 7 11 30.19 1023 10 16 0.00 0.00
8:58 am 08:58 Sunny 67 19.3 45 7.4 46 46 S 7 11 30.19 1022 10 16 0.00 0.00
9:58 am 09:58 Sunny 71 21.8 46 7.6 40 40 Calm 30.16 1022 10 16 0.00 0.00
10:58 am 10:58 Sunny 76 24.3 44 6.5 32 32 SSE 3 6 30.14 1021 10 16 0.00 0.00
11:58 am 11:58 Sunny 79 26.3 42 5.3 26 26 Calm 30.11 1020 10 16 0.00 0.00
12:58 pm 12:58 Sunny 84 28.8 38 3.6 20 20 NE 9 15 30.08 1019 10 16 0.00 0.00
1:58 pm 13:58 Mostly Sunny 86 29.9 34 1.3 16 16 NE 9 15 30.06 1018 10 16 0.00 0.00
2:58 pm 14:58 Mostly Sunny 85 29.6 34 1.1 16 16 NE 8 13 30.05 1018 10 16 0.00 0.00
3:58 pm 15:58 Sunny 88 31 31 -0.7 13 13 E 6 9 30.03 1017 10 16 0.00 0.00
4:58 pm 16:58 Sunny 87 30.8 31 -0.8 13 13 NNE 12 19 30.02 1017 10 16 0.00 0.00
5:58 pm 17:58 Sunny 87 30.4 32 -0.1 14 14 ENE 10 17 30.01 1016 10 16 0.00 0.00
6:58 pm 18:58 Sunny 85 29.3 32 0 15 15 NE 9 15 30.01 1016 10 16 0.00 0.00
7:58 pm 19:58 Sunny 79 26.1 36 2.1 21 21 E 7 11 30.02 1017 10 16 0.00 0.00
8:58 pm 20:58 Clear 75 23.8 35 1.4 23 23 ESE 9 15 30.03 1017 10 16 0.00 0.00
9:58 pm 21:58 Partly Cloudy 73 22.6 40 4.6 31 31 SW 16 26 30.06 1018 10 16 0.00 0.00
10:58 pm 22:58 Clear 69 20.4 42 5.6 38 38 SW 13 20 30.08 1019 10 16 0.00 0.00
11:58 pm 23:58 Clear 69 20.4 38 3.6 33 33 W 9 15 30.06 1018 10 16 0.00 0.00

Powered by AerisWeather